TimeCET,TemperatureF,Dew PointF,Humidity,Sea Level PressureIn,VisibilityMPH,Wind Direction,Wind SpeedMPH,Gust SpeedMPH,PrecipitationIn,Events,Conditions,WindDirDegrees,DateUTC
12:20 AM,39.2,33.8,81,29.77,6.2,SSE,56.4,-,N/A,,Mostly Cloudy,150,2013-02-14 23:20:00
12:50 AM,41.0,35.6,81,29.77,6.2,SSE,55.2,-,N/A,,Mostly Cloudy,160,2013-02-14 23:50:00
1:00 AM,24,21,85,,,South,2.2,,,,,170,2013-02-15 00:00:00
1:20 AM,41.0,35.6,81,29.77,6.2,SSE,56.4,-,N/A,,Overcast,160,2013-02-15 00:20:00
1:50 AM,41.0,35.6,81,29.77,6.2,SSE,52.9,-,N/A,,Mostly Cloudy,150,2013-02-15 00:50:00
2:20 AM,41.0,35.6,81,29.77,6.2,SSE,55.2,-,N/A,,Overcast,150,2013-02-15 01:20:00
2:50 AM,41.0,33.8,76,29.77,6.2,SSE,55.2,-,N/A,,Overcast,150,2013-02-15 01:50:00
3:20 AM,41.0,33.8,76,29.77,6.2,SSE,54.1,-,N/A,,Overcast,150,2013-02-15 02:20:00
3:50 AM,39.2,33.8,81,29.77,6.2,SSE,55.2,-,N/A,,Mostly Cloudy,150,2013-02-15 02:50:00
4:20 AM,41.0,33.8,76,29.77,6.2,SSE,55.2,-,N/A,,Overcast,160,2013-02-15 03:20:00
4:50 AM,41.0,33.8,76,29.77,6.2,SSE,54.1,-,N/A,,Mostly Cloudy,160,2013-02-15 03:50:00
5:20 AM,41.0,33.8,76,29.77,6.2,SSE,54.1,-,N/A,,Overcast,150,2013-02-15 04:20:00
5:50 AM,41.0,33.8,76,29.77,6.2,SSE,52.9,-,N/A,,Overcast,150,2013-02-15 04:50:00
6:20 AM,41.0,33.8,76,29.77,6.2,SSE,54.1,-,N/A,,Overcast,150,2013-02-15 05:20:00
6:50 AM,39.2,35.6,87,29.77,6.2,SSE,51.8,-,N/A,,Overcast,150,2013-02-15 05:50:00
7:00 AM,25,22,85,,,SE,2.2,,,,,140,2013-02-15 06:00:00
7:20 AM,39.2,35.6,87,29.77,6.2,SSE,55.2,-,N/A,,Overcast,150,2013-02-15 06:20:00
7:50 AM,39.2,35.6,87,29.80,6.2,SSE,52.9,-,N/A,,Overcast,150,2013-02-15 06:50:00
8:20 AM,39.2,35.6,87,29.80,6.2,SSE,55.2,-,N/A,,Overcast,150,2013-02-15 07:20:00
8:50 AM,39.2,35.6,87,29.80,6.2,SSE,55.2,-,N/A,Rain,Light Rain Showers,150,2013-02-15 07:50:00
9:20 AM,39.2,35.6,87,29.80,6.2,SSE,54.1,-,N/A,Rain,Light Rain,150,2013-02-15 08:20:00
9:50 AM,39.2,35.6,87,29.80,6.2,SSE,52.9,-,N/A,Rain,Light Rain Showers,150,2013-02-15 08:50:00
10:20 AM,39.2,35.6,87,29.80,6.2,SSE,57.5,-,N/A,Rain,Light Rain Showers,150,2013-02-15 09:20:00
10:50 AM,39.2,37.4,93,29.80,6.2,SSE,55.2,-,N/A,Rain,Light Rain Showers,150,2013-02-15 09:50:00
11:20 AM,39.2,37.4,93,29.80,5.6,SSE,56.4,-,N/A,Rain,Light Rain,150,2013-02-15 10:20:00
11:50 AM,39.2,37.4,93,29.80,6.2,SSE,58.7,-,N/A,Rain,Light Rain Showers,150,2013-02-15 10:50:00
12:20 PM,39.2,37.4,93,29.77,5.6,SSE,56.4,-,N/A,Rain,Light Rain,150,2013-02-15 11:20:00
12:50 PM,39.2,37.4,93,29.77,3.7,SSE,56.4,-,N/A,Rain,Light Rain,150,2013-02-15 11:50:00
1:00 PM,28,25,84,,,SSE,2.2,,,,,150,2013-02-15 12:00:00
1:20 PM,39.2,37.4,93,29.77,4.3,SSE,61.0,-,N/A,,Light Drizzle,150,2013-02-15 12:20:00
1:50 PM,41.0,39.2,93,29.74,5.6,SSE,61.0,-,N/A,Rain,Light Rain Showers,160,2013-02-15 12:50:00
2:20 PM,41.0,39.2,93,29.74,6.2,SSE,63.3,-,N/A,Rain,Light Rain Showers,160,2013-02-15 13:20:00
2:50 PM,41.0,39.2,93,29.74,5.6,SSE,57.5,-,N/A,,Overcast,160,2013-02-15 13:50:00
3:20 PM,42.8,41.0,93,29.77,3.1,South,49.5,-,N/A,Rain,Light Rain Showers,170,2013-02-15 14:20:00
3:50 PM,44.6,42.8,93,29.77,6.2,SSW,36.8,-,N/A,Rain,Light Rain Showers,200,2013-02-15 14:50:00
4:20 PM,44.6,42.8,93,29.80,6.2,SSW,26.5,-,N/A,,Mostly Cloudy,210,2013-02-15 15:20:00
4:50 PM,44.6,42.8,93,29.80,6.2,SW,25.3,-,N/A,,Mostly Cloudy,220,2013-02-15 15:50:00
5:20 PM,44.6,42.8,93,29.83,6.2,SW,23.0,-,N/A,,Mostly Cloudy,220,2013-02-15 16:20:00
5:50 PM,42.8,41.0,93,29.83,6.2,WSW,23.0,-,N/A,Rain,Light Rain,240,2013-02-15 16:50:00
6:20 PM,44.6,41.0,87,29.86,6.2,West,20.7,-,N/A,Rain,Light Rain Showers,270,2013-02-15 17:20:00
6:50 PM,44.6,39.2,81,29.86,6.2,West,21.9,-,N/A,,Mostly Cloudy,270,2013-02-15 17:50:00
7:00 PM,28,26,86,,,Calm,Calm,,,,,,2013-02-15 18:00:00
7:20 PM,44.6,39.2,81,29.89,6.2,West,23.0,-,N/A,,Mostly Cloudy,280,2013-02-15 18:20:00
7:50 PM,44.6,39.2,81,29.89,6.2,West,19.6,-,N/A,,Mostly Cloudy,280,2013-02-15 18:50:00
8:20 PM,44.6,37.4,76,29.92,6.2,West,20.7,-,N/A,,Partly Cloudy,270,2013-02-15 19:20:00
8:50 PM,44.6,37.4,76,29.92,6.2,West,19.6,-,N/A,,Partly Cloudy,260,2013-02-15 19:50:00
9:20 PM,44.6,39.2,81,29.95,6.2,WSW,17.3,-,N/A,,Scattered Clouds,250,2013-02-15 20:20:00
9:50 PM,44.6,37.4,76,29.95,6.2,WSW,19.6,-,N/A,,Partly Cloudy,240,2013-02-15 20:50:00
10:20 PM,44.6,37.4,76,29.95,6.2,WSW,19.6,-,N/A,,Scattered Clouds,240,2013-02-15 21:20:00
10:50 PM,44.6,37.4,76,29.98,6.2,SW,18.4,-,N/A,,Unknown,230,2013-02-15 21:50:00
11:20 PM,44.6,39.2,81,29.98,6.2,SW,19.6,-,N/A,,Unknown,230,2013-02-15 22:20:00
11:50 PM,44.6,39.2,81,29.98,6.2,SW,19.6,-,N/A,,Mostly Cloudy,220,2013-02-15 22:50:00